GFSMA_500_rhum_120.txt.gz
RH
38 37 35 29 20 17 14 15 18 17 16 17 18 19 18 17 15 14 13 13 15 17 18 19 21 23 25 27 30 31 32 39 42 43 45 47 54 58 60 57 50 38 28
40 39 37 27 20 15 14 18 19 18 18 17 18 19 20 20 20 20 20 21 22 23 24 24 25 26 28 29 28 30 36 46 46 48 52 55 58 60 64 58 46 44 40
44 40 36 27 21 16 15 18 19 19 19 19 20 20 20 21 21 22 23 23 24 25 26 26 27 28 27 27 28 36 41 49 45 46 53 55 56 60 65 61 53 50 48
45 40 34 28 24 22 21 20 21 20 21 21 21 21 21 21 21 23 24 26 27 28 28 27 26 24 25 31 41 45 51 64 64 59 50 54 56 57 63 66 58 56 54
45 40 36 31 28 25 23 23 22 21 20 20 19 21 19 20 20 21 23 23 23 23 22 20 20 21 27 34 43 59 66 63 60 61 59 53 50 53 56 61 60 59 51
44 42 38 35 31 27 25 23 21 20 18 16 14 14 15 17 17 15 15 16 15 17 24 35 46 55 63 63 74 72 71 70 68 61 62 58 54 55 61 64 62 62 58
36 30 25 22 21 19 18 17 16 17 17 16 15 18 20 21 22 26 34 41 45 51 69 75 73 74 72 75 68 72 68 75 76 81 70 66 64 61 69 73 76 72 72
43 35 29 25 22 20 18 17 16 14 14 16 21 29 35 64 71 72 75 79 80 79 75 68 68 74 78 80 78 78 74 78 84 79 78 81 74 73 74 77 83 79 80
40 36 32 28 25 23 20 17 14 13 17 25 41 63 87 82 77 80 77 81 78 71 71 60 71 73 69 68 71 71 72 74 68 66 71 77 76 79 84 94 94 92 88
42 39 35 31 27 23 18 15 18 24 31 77 88 87 89 81 77 80 73 70 53 64 58 40 58 33 34 52 64 67 71 78 80 78 71 71 78 82 92 91 97 92 89
45 40 34 27 22 18 17 23 33 45 70 93 91 89 87 46 62 59 78 38 42 60 56 26 26 21 26 38 66 73 71 71 79 85 90 93 92 95 92 97 98 97 97
43 36 29 25 22 24 31 43 55 68 95 100 95 58 44 31 25 19 16 24 22 14 10 10 11 15 18 24 60 86 83 87 82 99 99 98 99 95 98 97 99 96 99
47 36 30 28 33 38 47 80 84 93 95 96 94 48 27 26 30 23 18 15 13 11 12 11 10 10 10 12 23 54 80 84 100 99 97 96 95 99 98 97 99 98 98
65 48 39 36 42 68 92 98 96 96 97 93 73 40 32 29 28 28 26 24 16 14 13 11 10 10 11 25 50 72 90 95 81 83 97 100 100 98 97 97 97 98 97
90 62 64 82 82 82 96 97 96 97 96 81 61 70 32 35 35 36 33 27 21 15 12 12 12 11 17 39 70 89 63 67 75 87 89 100 97 99 89 77 90 93 87
97 96 95 94 96 97 96 97 94 96 90 77 89 34 36 35 41 41 36 28 19 15 14 13 12 16 25 61 93 75 64 80 99 96 86 58 36 30 26 24 29 28 27
96 97 97 97 97 96 96 97 96 96 95 57 46 40 44 40 43 42 33 26 20 16 15 14 15 19 36 47 56 52 55 57 53 34 21 15 16 18 17 19 17 25 27
97 97 97 95 97 96 94 91 89 84 79 83 69 50 44 42 39 27 24 23 20 19 17 14 14 27 42 27 18 13 12 11 11 11 12 14 15 14 12 13 15 24 26
94 93 92 93 96 96 96 95 91 87 70 59 49 45 41 38 20 25 26 23 21 18 16 18 21 18 11 10 9 8 7 7 7 9 13 14 16 16 18 22 28 31 38
80 70 61 70 78 71 60 57 53 44 41 44 43 36 38 34 20 26 25 20 16 15 12 10 10 11 10 10 8 6 6 9 11 10 12 17 22 24 30 37 40 37 45
60 54 52 48 48 48 46 46 49 52 50 38 31 35 37 27 22 23 16 16 14 11 9 11 12 13 12 7 5 6 11 10 9 11 20 25 30 40 46 46 44 43 56
65 63 60 56 56 55 54 48 40 36 36 37 38 39 41 28 23 15 15 15 14 12 12 12 14 13 6 6 8 11 10 8 13 18 25 40 49 49 46 48 51 58 62
58 59 57 47 42 30 31 31 33 39 37 36 41 40 33 25 16 13 15 17 15 14 13 14 14 7 8 10 11 11 10 9 15 19 31 48 50 50 57 61 63 60 61
59 51 37 42 35 35 34 33 38 43 44 44 40 32 24 18 13 14 17 20 17 17 16 16 8 9 13 12 11 11 12 16 24 32 46 50 53 63 72 75 76 78 67
54 50 40 40 42 44 49 53 51 48 46 40 32 26 23 15 13 18 23 22 19 19 17 14 9 10 12 12 14 15 16 25 33 42 49 46 51 53 61 67 80 79 73
35 38 40 44 53 59 66 64 54 48 43 36 34 31 22 14 16 26 26 23 23 21 19 14 10 11 13 15 17 17 19 31 39 50 57 53 58 57 67 76 82 76 81

GFSMA_500_rhum_126.txt.gz
RH
68 62 40 29 20 19 16 13 13 18 21 19 16 12 13 15 16 16 15 14 15 16 17 18 19 20 21 22 23 20 16 15 18 21 40 52 52 54 53 50 48 48 48
69 64 38 30 23 20 18 15 15 17 20 18 16 13 13 13 14 15 16 17 18 18 19 18 18 20 21 21 17 13 20 38 45 44 54 58 54 58 58 66 62 56 52
66 62 39 33 28 25 23 23 22 20 18 16 17 17 15 15 15 16 16 16 16 16 15 16 17 17 18 15 14 34 53 57 60 60 56 58 53 52 56 53 51 49 49
60 54 42 38 35 32 29 26 22 19 18 16 18 19 18 18 18 19 18 17 16 17 17 14 14 13 14 18 38 53 59 57 58 65 60 60 52 47 44 44 46 51 62
59 52 46 41 39 38 34 30 22 21 17 16 18 19 20 20 20 19 18 16 15 14 12 12 14 20 38 48 61 65 58 57 51 51 55 52 48 47 45 44 46 64 77
60 51 49 45 42 40 38 32 26 21 18 17 19 21 22 22 21 19 18 16 14 12 13 18 42 57 66 71 62 55 55 54 42 45 38 37 35 37 47 60 64 78 90
65 56 50 48 47 44 37 32 28 22 22 21 24 24 24 22 20 16 14 12 12 16 34 62 68 67 67 56 49 40 23 16 24 42 37 36 43 39 59 69 82 95 100
68 64 60 56 52 48 44 36 30 25 24 24 27 26 22 21 18 17 14 14 20 46 67 68 70 69 61 46 33 12 8 9 11 15 23 38 54 73 97 94 99 94 99
66 65 65 62 53 48 43 32 28 28 27 30 26 20 18 21 17 17 17 20 43 65 72 69 62 55 60 47 29 12 8 7 7 7 12 17 27 39 68 99 89 90 82
66 66 66 62 49 46 40 35 32 30 27 23 19 18 19 20 17 18 25 40 65 64 76 73 66 44 49 12 9 9 7 7 6 7 6 9 12 23 31 74 96 92 78
70 69 66 54 48 41 36 31 28 26 23 23 23 22 21 22 20 29 72 62 74 76 78 53 19 14 11 11 11 10 10 6 5 5 5 5 8 24 62 68 64 62 74
75 72 67 62 56 50 44 37 42 40 32 27 26 26 27 30 30 40 83 74 82 64 39 19 14 13 12 11 12 12 10 9 10 6 6 5 8 34 68 60 51 40 28
79 74 75 75 70 58 50 46 43 39 36 34 31 30 33 41 42 76 85 83 95 43 31 21 23 20 17 15 14 13 11 10 10 6 5 7 14 20 28 15 9 8 9
90 84 81 81 70 58 57 50 51 51 44 37 35 37 44 56 60 94 91 91 60 39 25 28 30 31 28 22 16 14 12 10 6 7 8 12 16 13 6 5 5 5 8
87 88 81 77 70 78 75 82 76 59 46 39 37 53 68 88 93 94 85 63 36 31 34 36 37 33 28 21 13 10 10 11 9 10 13 14 10 6 6 6 4 6 10
96 90 81 79 82 77 76 82 75 58 54 47 59 86 95 94 94 92 75 47 42 38 36 35 36 35 27 15 13 13 10 13 11 13 13 9 6 6 8 6 4 6 8
96 94 90 84 87 85 90 90 82 88 88 94 94 94 92 96 97 91 86 62 53 41 45 35 33 23 15 11 10 13 14 13 14 15 9 7 8 8 6 4 6 7 9
95 93 94 90 93 93 96 94 93 96 95 96 96 95 94 96 98 96 94 78 58 58 32 23 16 13 13 12 14 16 17 17 16 9 9 10 10 5 4 5 8 7 7
96 96 96 96 95 97 96 92 96 96 97 97 95 99 97 95 95 90 88 77 50 31 20 15 15 13 13 16 21 22 20 16 10 11 12 12 9 5 6 8 10 10 11
93 97 96 96 97 96 95 96 95 97 94 98 96 74 62 53 60 64 46 26 19 15 14 15 14 17 17 21 26 24 19 12 11 13 14 14 7 6 6 10 12 13 17
96 87 96 96 95 96 97 97 98 98 94 75 58 68 59 52 52 44 29 32 24 17 14 14 15 21 22 28 24 20 16 12 13 14 16 11 7 6 7 11 11 14 24
98 94 96 96 96 94 97 97 90 91 90 73 50 55 49 44 37 37 38 28 15 14 15 16 18 26 28 28 21 16 15 14 15 16 17 11 6 6 9 11 13 20 33
80 73 86 64 73 93 84 87 69 74 74 73 55 44 48 48 44 34 20 16 15 15 18 20 23 28 30 28 16 15 18 18 18 19 21 11 7 8 11 11 17 24 46
44 51 53 50 51 54 62 68 66 56 51 50 48 46 42 35 26 20 16 16 15 17 20 25 28 30 27 19 16 22 22 21 21 22 20 9 6 8 11 16 20 23 50
61 59 54 54 54 50 45 41 45 49 55 46 32 27 24 22 22 23 16 17 15 18 21 27 29 29 26 16 20 25 24 24 24 23 14 8 8 10 10 18 24 33 57
56 62 59 53 52 49 44 45 50 48 47 40 29 31 29 26 20 20 18 18 24 29 37 39 38 31 21 22 28 28 27 28 26 17 12 11 12 10 12 23 30 48 69

GFSMA_500_rhum_129.txt.gz
RH
41 38 50 71 50 22 17 14 11 10 11 15 23 22 17 12 13 14 15 15 15 16 16 16 15 16 14 18 15 11 12 30 48 51 54 50 49 51 45 42 38 33 30
52 46 51 72 54 30 19 17 14 12 13 19 21 18 17 12 13 13 13 13 13 14 15 14 13 14 13 12 10 16 23 40 51 48 43 44 51 48 45 40 37 36 39
62 55 56 71 53 33 23 20 16 13 14 17 21 19 16 14 14 14 15 16 16 16 14 13 12 12 10 10 18 35 43 54 48 44 47 43 38 35 34 31 38 46 50
72 63 60 66 56 36 26 22 19 16 17 19 20 19 18 18 18 18 18 19 18 16 14 14 13 10 11 25 43 52 55 52 47 45 36 31 30 23 24 20 20 19 26
75 69 66 65 60 39 31 26 22 20 19 19 19 18 18 19 19 20 21 20 19 16 15 13 11 12 34 52 56 57 48 47 34 22 15 12 10 10 13 12 15 18 33
73 68 68 65 59 43 37 34 29 25 24 21 20 17 17 19 21 22 22 21 17 14 12 11 13 27 56 57 58 51 42 20 13 14 12 7 9 9 10 11 18 36 40
76 75 69 62 57 46 40 37 34 30 32 22 22 18 18 21 23 23 23 18 16 13 11 12 24 61 60 62 62 50 26 9 7 6 6 6 6 7 7 20 35 42 66
76 74 69 59 54 49 44 42 40 35 33 27 22 22 23 24 24 24 19 16 14 14 19 23 45 62 65 60 55 52 35 8 7 7 6 7 7 7 8 7 25 48 86
80 72 69 62 53 50 48 46 42 38 33 28 26 25 26 25 25 22 17 16 16 15 22 35 50 60 68 61 57 51 9 9 7 6 6 6 7 6 6 8 19 76 59
80 76 62 65 58 52 52 50 46 45 40 35 29 29 26 26 23 20 20 18 17 18 48 58 56 61 72 52 47 19 10 10 8 7 8 8 6 5 5 6 11 16 14
76 66 60 64 66 63 59 56 51 47 39 37 33 29 26 24 25 24 21 19 21 32 69 62 60 68 51 21 15 11 11 11 12 9 7 6 6 5 5 8 12 11 6
72 66 66 67 66 65 64 59 53 44 42 37 30 25 25 26 28 27 26 23 28 40 53 73 71 44 16 13 13 11 11 13 13 13 7 6 5 5 6 9 12 8 6
70 72 70 68 67 66 62 54 51 47 38 38 40 30 34 42 50 32 34 29 34 59 68 80 72 39 20 23 24 21 19 15 10 7 8 6 5 6 10 13 9 6 7
80 80 76 71 66 62 61 56 55 56 59 46 39 35 50 78 37 37 40 39 45 80 85 79 66 38 27 28 26 27 24 8 7 7 7 6 6 9 12 12 7 8 8
88 86 80 73 70 67 66 64 64 65 56 50 57 70 56 57 43 46 56 65 60 67 89 96 63 35 32 34 32 32 20 8 8 8 7 7 10 14 14 9 7 8 6
86 88 79 78 76 76 72 70 73 64 62 63 80 92 72 58 53 77 77 88 71 94 85 76 50 34 36 40 33 30 14 10 8 7 8 10 12 16 12 8 9 9 5
93 86 83 81 82 81 83 78 75 71 78 85 85 96 94 93 95 94 89 89 79 93 74 62 43 42 44 34 26 19 9 7 8 9 10 16 20 16 11 9 11 9 6
92 92 88 92 93 93 94 95 87 87 95 91 92 94 95 94 95 96 100 98 97 88 85 67 53 50 45 19 13 10 10 12 10 12 16 22 20 13 11 12 12 9 6
95 84 84 89 96 96 96 97 97 97 97 95 94 95 98 100 96 99 100 96 95 96 93 81 73 63 44 14 11 12 11 10 11 15 22 24 18 12 13 15 14 10 6
96 95 95 96 94 95 97 95 97 96 100 97 95 96 96 87 93 96 95 78 84 82 93 85 69 39 19 15 13 13 12 12 15 20 26 21 16 13 15 16 18 12 6
96 96 97 96 96 94 96 97 97 96 97 96 96 97 98 97 77 68 68 72 60 89 71 56 43 27 18 16 15 14 15 19 21 24 25 18 16 16 17 19 20 9 8
97 97 96 96 96 97 97 97 97 97 96 97 100 94 97 73 71 73 71 68 66 68 54 40 33 19 18 18 15 14 16 20 28 27 21 18 18 20 20 21 17 8 7
96 96 96 96 97 97 96 95 94 97 96 96 99 97 93 92 78 81 72 65 64 59 41 36 23 19 15 14 14 17 18 25 29 22 19 22 22 22 22 23 11 8 10
46 44 59 66 69 82 81 92 94 80 71 97 98 97 90 90 89 79 60 54 45 40 30 21 21 17 14 15 18 24 30 30 30 21 20 24 24 24 25 23 10 10 10
32 33 32 40 40 34 47 61 58 56 71 77 74 75 75 84 82 74 57 48 49 42 26 23 20 18 18 18 28 33 37 36 32 23 22 25 27 28 24 17 12 12 8
41 47 49 52 52 49 47 50 51 56 68 77 78 70 58 52 48 48 50 48 38 34 33 28 28 33 34 32 36 42 42 38 25 23 27 30 31 30 21 18 14 11 13

GFSMA_500_rhum_135.txt.gz
RH
45 48 88 80 68 63 41 51 59 22 16 10 11 13 15 20 26 24 14 12 12 13 14 14 11 12 12 13 14 13 9 31 37 39 40 34 28 24 23 14 18 15 8
32 44 78 94 72 73 52 50 59 36 18 13 10 12 14 20 24 22 17 13 13 12 12 13 15 16 16 16 15 10 11 30 35 38 39 32 29 19 26 17 9 7 9
83 71 94 100 90 74 63 52 57 55 23 18 11 12 14 19 22 22 18 13 14 16 17 18 21 20 18 15 12 9 14 31 37 39 39 28 30 26 18 7 8 8 13
83 65 94 96 96 80 70 53 61 65 34 20 15 12 13 18 21 22 19 16 16 18 19 21 22 20 16 11 10 12 25 34 37 42 40 18 25 17 5 6 6 11 14
88 59 92 96 95 80 72 58 60 70 46 24 19 14 14 17 20 20 21 18 19 20 22 22 23 20 13 11 20 33 38 40 39 45 39 16 15 7 5 6 8 10 8
44 98 96 97 96 90 76 59 59 70 54 29 22 17 14 16 21 21 21 19 19 20 23 24 24 18 13 12 19 38 45 45 44 45 48 41 17 7 6 7 9 6 6
97 96 98 94 95 90 85 62 60 71 62 36 24 20 16 17 18 20 19 19 19 20 23 25 25 17 14 16 18 47 47 47 47 53 51 36 10 8 8 9 11 7 8
41 72 50 81 96 89 86 61 55 68 66 41 29 22 20 22 21 19 19 19 19 22 24 27 23 17 16 17 19 55 51 48 52 58 46 25 10 9 11 14 11 9 7
14 34 93 86 90 94 94 67 59 61 66 46 33 27 24 23 20 18 18 20 23 23 26 28 21 19 18 17 19 55 55 53 51 53 37 32 10 10 12 13 11 8 7
41 64 94 97 86 100 94 75 65 63 67 53 40 34 32 26 22 23 24 22 24 24 27 27 22 21 21 20 19 28 43 58 61 54 25 20 14 11 12 15 9 7 7
99 94 97 98 99 96 95 90 71 69 66 56 43 37 34 28 28 26 23 25 25 25 28 24 25 26 26 25 21 25 48 46 60 33 17 15 14 16 20 12 8 8 8
97 96 97 97 97 96 97 93 82 70 66 55 44 40 38 32 26 23 26 29 28 28 27 27 32 48 51 33 24 32 50 56 69 57 20 21 27 27 26 12 8 8 9
96 96 94 60 89 88 100 95 90 69 63 56 48 43 41 36 28 31 36 28 28 28 27 31 46 58 55 34 29 40 64 73 67 70 35 28 33 31 27 14 10 11 9
97 87 91 83 98 98 97 95 90 71 63 56 51 47 43 37 29 77 43 28 29 28 33 49 57 61 61 46 39 57 66 71 86 79 39 35 34 32 32 16 12 9 11
82 94 98 98 97 96 97 95 92 83 65 56 53 49 47 40 84 87 43 29 38 67 55 58 60 72 73 62 46 71 78 78 87 69 39 41 37 36 33 20 12 9 13
96 97 96 96 96 98 97 94 88 78 72 60 57 49 60 95 94 91 30 65 83 54 42 49 78 76 77 81 79 92 90 91 95 58 45 42 41 32 30 24 12 16 17
97 93 90 96 97 97 97 90 90 81 80 69 66 81 96 95 83 54 75 92 72 50 48 75 87 86 95 97 91 82 89 99 94 59 51 50 51 34 25 20 17 17 17
98 96 97 97 96 97 96 93 88 88 86 68 95 95 95 94 86 70 93 83 80 46 63 87 93 92 88 80 79 85 85 90 97 81 67 64 64 57 38 23 23 22 20
96 97 97 98 96 96 96 94 97 96 87 94 95 95 84 91 91 93 91 93 76 70 90 96 93 85 99 82 74 75 73 78 95 90 88 92 87 71 42 29 26 21 23
96 97 100 99 96 96 94 96 94 94 93 96 95 94 95 95 94 100 98 86 94 93 96 94 92 95 99 96 78 78 78 68 82 92 98 100 92 61 35 28 25 22 22
97 98 99 98 96 94 97 96 94 96 96 95 95 96 95 94 96 95 94 96 94 96 93 94 95 95 97 96 85 90 94 88 97 100 98 98 83 50 35 29 26 27 31
76 90 97 96 97 96 96 96 96 95 96 96 96 96 95 95 96 98 96 98 96 95 96 95 100 96 97 97 91 97 99 97 99 100 100 94 66 45 39 35 34 36 31
97 97 97 96 96 96 96 96 97 96 96 98 97 97 97 98 93 98 98 98 99 99 97 93 91 88 96 98 99 100 99 98 99 100 98 75 52 43 44 44 44 40 34
97 96 96 97 96 97 96 97 96 92 97 97 97 96 96 93 96 98 96 96 98 98 100 93 97 94 97 99 98 98 98 97 98 98 87 64 52 58 58 54 50 45 40
93 94 94 95 96 95 95 87 92 92 92 95 96 96 98 98 97 98 96 98 98 100 98 98 98 99 99 98 98 98 97 97 97 99 84 71 72 82 73 59 56 52 48
38 41 37 38 45 46 45 49 48 55 84 88 81 80 96 96 97 96 98 88 88 96 99 99 98 97 100 99 98 98 95 95 97 98 97 96 96 96 88 70 62 62 60